Time,TemperatureF,DewpointF,PressureIn,WindDirection,WindDirectionDegrees,WindSpeedMPH,WindSpeedGustMPH,Humidity,HourlyPrecipIn,Conditions,Clouds,dailyrainin,SolarRadiationWatts/m^2,SoftwareType,DateUTC
2013-01-10 00:00:00,56.6,55.8,30.23,East,92,0.0,3.0,97,0.00,,---,0.00,0.00,VWS V14.00,2013-01-10 06:00:00,
2013-01-10 00:05:00,56.6,55.8,30.23,ENE,62,0.0,4.0,97,0.00,,---,0.00,0.00,VWS V14.00,2013-01-10 06:05:00,
2013-01-10 00:10:00,56.6,55.8,30.23,NE,53,0.0,7.0,97,0.00,,---,0.00,0.00,VWS V14.00,2013-01-10 06:10:00,
2013-01-10 00:15:00,56.6,55.8,30.23,ENE,63,0.0,7.0,97,0.00,,---,0.00,0.00,VWS V14.00,2013-01-10 06:15:00,
2013-01-10 00:20:00,56.7,55.9,30.24,East,82,5.0,7.0,97,0.00,,---,0.00,0.00,VWS V14.00,2013-01-10 06:20:00,
2013-01-10 00:25:00,56.7,55.9,30.23,ENE,66,0.0,7.0,97,0.00,,---,0.00,0.00,VWS V14.00,2013-01-10 06:25:00,
2013-01-10 00:30:00,56.8,56.0,30.22,ENE,63,0.0,5.0,97,0.00,,---,0.00,0.00,VWS V14.00,2013-01-10 06:30:00,
2013-01-10 00:35:00,56.8,56.0,30.22,NE,55,4.0,8.0,97,0.00,,---,0.00,0.00,VWS V14.00,2013-01-10 06:35:00,
2013-01-10 00:40:00,56.8,56.0,30.21,NE,46,0.0,10.0,97,0.00,,---,0.00,0.00,VWS V14.00,2013-01-10 06:40:00,
2013-01-10 00:45:00,56.9,56.1,30.21,East,83,0.0,10.0,97,0.00,,---,0.00,0.00,VWS V14.00,2013-01-10 06:45:00,
2013-01-10 00:50:00,56.8,56.0,30.22,ENE,78,1.0,10.0,97,0.00,,---,0.00,0.00,VWS V14.00,2013-01-10 06:50:00,
2013-01-10 00:55:00,56.9,56.1,30.21,ENE,65,0.0,10.0,97,0.00,,---,0.00,0.00,VWS V14.00,2013-01-10 06:55:00,
2013-01-10 01:00:00,56.9,56.1,30.21,East,87,5.0,6.0,97,0.00,,---,0.00,0.00,VWS V14.00,2013-01-10 07:00:00,
2013-01-10 01:05:00,57.0,56.2,30.21,East,84,2.0,6.0,97,0.00,,---,0.00,0.00,VWS V14.00,2013-01-10 07:05:00,
2013-01-10 01:10:00,57.0,56.2,30.21,East,82,0.0,10.0,97,0.00,,---,0.00,0.00,VWS V14.00,2013-01-10 07:10:00,
2013-01-10 01:15:00,57.1,56.3,30.21,East,85,0.0,10.0,97,0.00,,---,0.00,0.00,VWS V14.00,2013-01-10 07:15:00,
2013-01-10 01:20:00,57.1,56.3,30.22,East,90,0.0,10.0,97,0.00,,---,0.00,0.00,VWS V14.00,2013-01-10 07:20:00,
2013-01-10 01:25:00,57.2,56.4,30.22,East,101,3.0,10.0,97,0.00,,---,0.00,0.00,VWS V14.00,2013-01-10 07:25:00,
2013-01-10 01:30:00,57.3,56.5,30.22,East,101,0.0,4.0,97,0.00,,---,0.01,0.00,VWS V14.00,2013-01-10 07:30:00,
2013-01-10 01:35:00,57.4,56.6,30.22,East,101,2.0,9.0,97,0.00,,---,0.01,0.00,VWS V14.00,2013-01-10 07:35:00,
2013-01-10 01:40:00,57.5,56.7,30.22,East,96,2.0,9.0,97,0.00,,---,0.01,0.00,VWS V14.00,2013-01-10 07:40:00,
2013-01-10 01:45:00,57.5,56.7,30.22,ESE,110,0.0,9.0,97,0.00,,---,0.01,0.00,VWS V14.00,2013-01-10 07:45:00,
2013-01-10 01:50:00,57.5,56.7,30.21,East,79,0.0,10.0,97,0.00,,---,0.01,0.00,VWS V14.00,2013-01-10 07:50:00,
2013-01-10 01:55:00,57.6,56.8,30.21,East,83,3.0,10.0,97,0.00,,---,0.02,0.00,VWS V14.00,2013-01-10 07:55:00,
2013-01-10 02:00:00,57.7,56.9,30.21,East,84,0.0,6.0,97,0.00,,---,0.02,0.00,VWS V14.00,2013-01-10 08:00:00,
2013-01-10 02:05:00,57.7,56.9,30.20,ENE,69,0.0,6.0,97,0.05,,---,0.03,0.00,VWS V14.00,2013-01-10 08:05:00,
2013-01-10 02:10:00,57.8,57.0,30.20,ESE,110,10.0,10.0,97,0.15,,---,0.04,0.00,VWS V14.00,2013-01-10 08:10:00,
2013-01-10 02:15:00,57.9,57.1,30.20,ESE,111,7.0,12.0,97,0.09,,---,0.04,0.00,VWS V14.00,2013-01-10 08:15:00,
2013-01-10 02:20:00,58.0,57.2,30.19,East,88,5.0,12.0,97,0.06,,---,0.05,0.00,VWS V14.00,2013-01-10 08:20:00,
2013-01-10 02:25:00,58.0,57.2,30.18,East,89,3.0,12.0,97,0.06,,---,0.05,0.00,VWS V14.00,2013-01-10 08:25:00,
2013-01-10 02:30:00,58.0,57.2,30.18,ENE,74,3.0,7.0,97,0.05,,---,0.05,0.00,VWS V14.00,2013-01-10 08:30:00,
2013-01-10 02:35:00,58.2,57.4,30.18,East,82,0.0,8.0,97,0.04,,---,0.05,0.00,VWS V14.00,2013-01-10 08:35:00,
2013-01-10 02:40:00,58.3,57.5,30.18,NE,55,5.0,8.0,97,0.00,,---,0.05,0.00,VWS V14.00,2013-01-10 08:40:00,
2013-01-10 02:45:00,58.4,57.8,30.18,SE,124,0.0,9.0,98,0.00,,---,0.05,0.00,VWS V14.00,2013-01-10 08:45:00,
2013-01-10 02:50:00,58.4,57.8,30.18,East,94,0.0,9.0,98,0.00,,---,0.06,0.00,VWS V14.00,2013-01-10 08:50:00,
2013-01-10 02:55:00,58.5,57.9,30.18,ESE,120,0.0,9.0,98,0.00,,---,0.06,0.00,VWS V14.00,2013-01-10 08:55:00,
2013-01-10 03:00:00,58.6,57.8,30.18,East,93,0.0,2.0,97,0.00,,---,0.06,0.00,VWS V14.00,2013-01-10 09:00:00,
2013-01-10 03:05:00,58.8,58.2,30.18,East,100,0.0,6.0,98,0.00,,---,0.06,0.00,VWS V14.00,2013-01-10 09:05:00,
2013-01-10 03:10:00,58.9,58.3,30.18,ESE,104,0.0,6.0,98,0.00,,---,0.06,0.00,VWS V14.00,2013-01-10 09:10:00,
2013-01-10 03:15:00,59.0,58.4,30.18,East,84,0.0,6.0,98,0.00,,---,0.06,0.00,VWS V14.00,2013-01-10 09:15:00,
2013-01-10 03:20:00,59.1,58.5,30.18,East,91,0.0,7.0,98,0.00,,---,0.07,0.00,VWS V14.00,2013-01-10 09:20:00,
2013-01-10 03:25:00,59.2,58.6,30.18,East,93,0.0,7.0,98,0.08,,---,0.08,0.00,VWS V14.00,2013-01-10 09:25:00,
2013-01-10 03:30:00,59.3,58.7,30.17,East,92,1.0,5.0,98,0.13,,---,0.09,0.00,VWS V14.00,2013-01-10 09:30:00,
2013-01-10 03:35:00,59.4,58.8,30.17,ESE,109,0.0,5.0,98,1.05,,---,0.12,0.00,VWS V14.00,2013-01-10 09:35:00,
2013-01-10 03:40:00,59.5,58.9,30.17,East,80,5.0,6.0,98,0.17,,---,0.14,0.00,VWS V14.00,2013-01-10 09:40:00,
2013-01-10 03:45:00,59.6,59.0,30.16,ESE,118,2.0,7.0,98,0.10,,---,0.15,0.00,VWS V14.00,2013-01-10 09:45:00,
2013-01-10 03:50:00,59.8,59.2,30.16,ESE,106,4.0,9.0,98,0.10,,---,0.15,0.00,VWS V14.00,2013-01-10 09:50:00,
2013-01-10 03:55:00,59.8,59.2,30.15,ESE,108,3.0,12.0,98,0.07,,---,0.16,0.00,VWS V14.00,2013-01-10 09:55:00,
2013-01-10 04:00:00,59.8,59.2,30.14,ENE,71,0.0,10.0,98,0.07,,---,0.16,0.00,VWS V14.00,2013-01-10 10:00:00,
2013-01-10 04:05:00,59.7,59.1,30.15,SE,137,0.0,10.0,98,0.05,,---,0.16,0.00,VWS V14.00,2013-01-10 10:05:00,
2013-01-10 04:10:00,59.7,59.1,30.15,SE,128,6.0,10.0,98,0.05,,---,0.17,0.00,VWS V14.00,2013-01-10 10:10:00,
2013-01-10 04:15:00,59.8,59.2,30.13,ESE,113,6.0,11.0,98,0.07,,---,0.18,0.00,VWS V14.00,2013-01-10 10:15:00,
2013-01-10 04:20:00,59.8,59.2,30.14,East,92,0.0,12.0,98,0.07,,---,0.18,0.00,VWS V14.00,2013-01-10 10:20:00,
2013-01-10 04:25:00,59.8,59.2,30.14,SE,139,3.0,13.0,98,0.06,,---,0.19,0.00,VWS V14.00,2013-01-10 10:25:00,
2013-01-10 04:30:00,59.8,59.0,30.14,ESE,111,5.0,11.0,97,0.06,,---,0.19,0.00,VWS V14.00,2013-01-10 10:30:00,
2013-01-10 04:35:00,59.8,59.0,30.14,SE,126,4.0,11.0,97,0.07,,---,0.20,0.00,VWS V14.00,2013-01-10 10:35:00,
2013-01-10 04:40:00,59.9,59.0,30.14,East,98,0.0,11.0,97,0.07,,---,0.20,0.00,VWS V14.00,2013-01-10 10:40:00,
2013-01-10 04:45:00,59.9,59.0,30.13,East,85,7.0,13.0,97,0.06,,---,0.21,0.00,VWS V14.00,2013-01-10 10:45:00,
2013-01-10 04:50:00,59.9,59.0,30.14,SE,132,0.0,14.0,97,0.08,,---,0.22,0.00,VWS V14.00,2013-01-10 10:50:00,
2013-01-10 04:55:00,59.9,59.0,30.14,ESE,103,3.0,14.0,97,0.14,,---,0.23,0.00,VWS V14.00,2013-01-10 10:55:00,
2013-01-10 05:00:00,60.0,59.2,30.13,ESE,106,3.0,12.0,97,0.16,,---,0.24,0.00,VWS V14.00,2013-01-10 11:00:00,
2013-01-10 05:05:00,60.1,59.2,30.13,SE,137,7.0,15.0,97,0.15,,---,0.26,0.00,VWS V14.00,2013-01-10 11:05:00,
2013-01-10 05:10:00,60.1,59.2,30.12,SE,129,10.0,15.0,97,0.12,,---,0.27,0.00,VWS V14.00,2013-01-10 11:10:00,
2013-01-10 05:15:00,60.1,59.2,30.12,ESE,103,2.0,15.0,97,0.13,,---,0.28,0.00,VWS V14.00,2013-01-10 11:15:00,
2013-01-10 05:20:00,60.1,59.2,30.11,East,94,6.0,15.0,97,0.10,,---,0.28,0.00,VWS V14.00,2013-01-10 11:20:00,
2013-01-10 05:25:00,60.2,59.3,30.11,ESE,115,6.0,15.0,97,0.06,,---,0.29,0.00,VWS V14.00,2013-01-10 11:25:00,
2013-01-10 05:30:00,60.3,59.5,30.11,ESE,121,7.0,14.0,97,0.06,,---,0.29,0.00,VWS V14.00,2013-01-10 11:30:00,
2013-01-10 05:35:00,60.4,59.8,30.11,East,97,4.0,14.0,98,0.09,,---,0.30,0.00,VWS V14.00,2013-01-10 11:35:00,
2013-01-10 05:40:00,60.6,59.8,30.11,SE,145,3.0,14.0,97,0.09,,---,0.31,0.00,VWS V14.00,2013-01-10 11:40:00,
2013-01-10 05:45:00,60.7,59.8,30.12,SE,135,5.0,17.0,97,0.13,,---,0.32,0.00,VWS V14.00,2013-01-10 11:45:00,
2013-01-10 05:50:00,60.8,60.2,30.12,East,100,11.0,17.0,98,0.07,,---,0.32,0.00,VWS V14.00,2013-01-10 11:50:00,
2013-01-10 05:55:00,60.9,60.3,30.13,SSE,162,9.0,17.0,98,0.04,,---,0.32,0.00,VWS V14.00,2013-01-10 11:55:00,
2013-01-10 06:00:00,61.0,60.4,30.13,SE,126,9.0,13.0,98,0.14,,---,0.34,0.00,VWS V14.00,2013-01-10 12:00:00,
2013-01-10 06:05:00,61.0,60.2,30.13,ESE,115,0.0,13.0,97,0.16,,---,0.35,0.00,VWS V14.00,2013-01-10 12:05:00,
2013-01-10 06:10:00,61.1,60.2,30.13,SE,144,4.0,13.0,97,0.16,,---,0.36,0.00,VWS V14.00,2013-01-10 12:10:00,
2013-01-10 06:15:00,61.1,60.2,30.13,SSE,153,0.0,13.0,97,0.13,,---,0.37,0.00,VWS V14.00,2013-01-10 12:15:00,
2013-01-10 06:20:00,61.2,60.3,30.14,SSE,158,5.0,14.0,97,0.13,,---,0.38,0.00,VWS V14.00,2013-01-10 12:20:00,
2013-01-10 06:25:00,61.2,60.3,30.14,SSE,152,4.0,14.0,97,0.14,,---,0.39,0.00,VWS V14.00,2013-01-10 12:25:00,
2013-01-10 06:30:00,61.2,60.3,30.13,East,90,0.0,10.0,97,0.12,,---,0.41,0.00,VWS V14.00,2013-01-10 12:30:00,
2013-01-10 06:35:00,61.2,60.3,30.14,SSE,151,5.0,10.0,97,0.14,,---,0.42,0.00,VWS V14.00,2013-01-10 12:35:00,
2013-01-10 06:40:00,61.2,60.3,30.15,SSE,161,7.0,12.0,97,0.13,,---,0.43,0.00,VWS V14.00,2013-01-10 12:40:00,
2013-01-10 06:45:00,61.3,60.4,30.15,SSE,148,3.0,12.0,97,0.19,,---,0.45,0.00,VWS V14.00,2013-01-10 12:45:00,
2013-01-10 06:50:00,61.3,60.4,30.16,SE,124,6.0,16.0,97,0.17,,---,0.46,0.00,VWS V14.00,2013-01-10 12:50:00,
2013-01-10 06:55:00,61.3,60.4,30.15,SE,128,5.0,16.0,97,0.11,,---,0.46,0.00,VWS V14.00,2013-01-10 12:55:00,
2013-01-10 07:00:00,61.3,60.4,30.15,SE,136,0.0,7.0,97,0.09,,---,0.48,0.00,VWS V14.00,2013-01-10 13:00:00,
2013-01-10 07:05:00,61.4,60.5,30.15,SE,140,0.0,7.0,97,0.15,,---,0.49,0.00,VWS V14.00,2013-01-10 13:05:00,
2013-01-10 07:10:00,61.4,60.5,30.15,SE,128,0.0,7.0,97,0.16,,---,0.50,0.00,VWS V14.00,2013-01-10 13:10:00,
2013-01-10 07:15:00,61.4,60.5,30.15,SE,129,0.0,8.0,97,0.19,,---,0.52,0.00,VWS V14.00,2013-01-10 13:15:00,
2013-01-10 07:20:00,61.4,60.5,30.15,SSE,155,0.0,11.0,97,0.11,,---,0.52,0.00,VWS V14.00,2013-01-10 13:20:00,
2013-01-10 07:25:00,61.3,60.4,30.16,ESE,117,0.0,11.0,97,0.06,,---,0.53,0.00,VWS V14.00,2013-01-10 13:25:00,
2013-01-10 07:30:00,61.3,60.4,30.16,SE,124,2.0,7.0,97,0.06,,---,0.53,0.00,VWS V14.00,2013-01-10 13:30:00,
2013-01-10 07:35:00,61.2,60.3,30.16,ESE,123,0.0,7.0,97,0.06,,---,0.54,0.00,VWS V14.00,2013-01-10 13:35:00,
2013-01-10 07:40:00,61.1,60.2,30.16,East,88,0.0,10.0,97,0.06,,---,0.54,5.00,VWS V14.00,2013-01-10 13:40:00,
2013-01-10 07:45:00,61.0,60.2,30.16,ESE,106,2.0,10.0,97,0.06,,---,0.54,5.00,VWS V14.00,2013-01-10 13:45:00,
2013-01-10 07:50:00,61.0,60.2,30.16,SE,136,0.0,10.0,97,0.05,,---,0.55,5.00,VWS V14.00,2013-01-10 13:50:00,
2013-01-10 07:55:00,60.9,60.0,30.16,ESE,108,4.0,10.0,97,0.11,,---,0.56,7.00,VWS V14.00,2013-01-10 13:55:00,
2013-01-10 08:00:00,60.9,60.0,30.16,ESE,117,4.0,8.0,97,0.08,,---,0.56,11.00,VWS V14.00,2013-01-10 14:00:00,
2013-01-10 08:05:00,60.9,60.0,30.15,East,79,0.0,8.0,97,0.06,,---,0.57,14.00,VWS V14.00,2013-01-10 14:05:00,
2013-01-10 08:10:00,60.9,60.0,30.16,ESE,112,0.0,8.0,97,0.06,,---,0.57,18.00,VWS V14.00,2013-01-10 14:10:00,
2013-01-10 08:15:00,60.9,60.0,30.16,ESE,103,0.0,10.0,97,0.05,,---,0.57,14.00,VWS V14.00,2013-01-10 14:15:00,
2013-01-10 08:20:00,60.9,60.0,30.15,East,94,0.0,10.0,97,0.00,,---,0.57,18.00,VWS V14.00,2013-01-10 14:20:00,
2013-01-10 08:25:00,60.9,60.0,30.16,SE,125,4.0,11.0,97,0.00,,---,0.58,12.00,VWS V14.00,2013-01-10 14:25:00,
2013-01-10 08:30:00,61.0,60.2,30.16,ESE,103,0.0,10.0,97,0.00,,---,0.58,12.00,VWS V14.00,2013-01-10 14:30:00,
2013-01-10 08:35:00,61.1,60.2,30.16,ESE,107,2.0,10.0,97,0.30,,---,0.60,18.00,VWS V14.00,2013-01-10 14:35:00,
2013-01-10 08:40:00,61.1,60.2,30.15,SE,136,0.0,10.0,97,0.12,,---,0.61,14.00,VWS V14.00,2013-01-10 14:40:00,
2013-01-10 08:45:00,61.1,60.2,30.15,ESE,113,0.0,10.0,97,0.12,,---,0.61,18.00,VWS V14.00,2013-01-10 14:45:00,
2013-01-10 08:50:00,61.2,60.3,30.14,East,97,0.0,10.0,97,0.07,,---,0.62,23.00,VWS V14.00,2013-01-10 14:50:00,
2013-01-10 08:55:00,61.3,60.4,30.15,East,96,0.0,10.0,97,0.07,,---,0.63,23.00,VWS V14.00,2013-01-10 14:55:00,
2013-01-10 09:00:00,61.4,60.8,30.16,ESE,105,0.0,6.0,98,0.09,,---,0.64,12.00,VWS V14.00,2013-01-10 15:00:00,
2013-01-10 09:05:00,61.4,60.8,30.15,ESE,104,1.0,6.0,98,0.46,,---,0.66,14.00,VWS V14.00,2013-01-10 15:05:00,
2013-01-10 09:10:00,61.5,60.9,30.15,SE,125,0.0,6.0,98,0.32,,---,0.69,18.00,VWS V14.00,2013-01-10 15:10:00,
2013-01-10 09:15:00,61.6,61.0,30.15,ESE,120,0.0,6.0,98,0.09,,---,0.69,21.00,VWS V14.00,2013-01-10 15:15:00,
2013-01-10 09:20:00,61.6,61.0,30.15,SE,140,0.0,6.0,98,0.07,,---,0.70,19.00,VWS V14.00,2013-01-10 15:20:00,
2013-01-10 09:25:00,61.7,61.1,30.15,ESE,119,0.0,6.0,98,0.08,,---,0.71,26.00,VWS V14.00,2013-01-10 15:25:00,
2013-01-10 09:30:00,61.7,60.8,30.15,SE,144,0.0,0.0,97,0.08,,---,0.71,14.00,VWS V14.00,2013-01-10 15:30:00,
2013-01-10 09:35:00,61.8,60.9,30.16,SE,144,0.0,1.0,97,0.69,,---,0.74,26.00,VWS V14.00,2013-01-10 15:35:00,
2013-01-10 09:40:00,61.9,61.0,30.15,SSE,167,0.0,1.0,97,0.14,,---,0.75,19.00,VWS V14.00,2013-01-10 15:40:00,
2013-01-10 09:45:00,61.9,61.0,30.15,ESE,122,0.0,1.0,97,0.06,,---,0.75,26.00,VWS V14.00,2013-01-10 15:45:00,
2013-01-10 09:50:00,62.0,61.1,30.14,SE,130,0.0,1.0,97,0.04,,---,0.75,9.00,VWS V14.00,2013-01-10 15:50:00,
2013-01-10 09:55:00,62.0,61.1,30.14,East,92,0.0,1.0,97,0.00,,---,0.75,32.00,VWS V14.00,2013-01-10 15:55:00,
2013-01-10 10:00:00,62.1,61.5,30.14,ESE,103,0.0,0.0,98,0.00,,---,0.76,23.00,VWS V14.00,2013-01-10 16:00:00,
2013-01-10 10:05:00,62.1,61.5,30.14,ESE,105,0.0,0.0,98,0.00,,---,0.76,18.00,VWS V14.00,2013-01-10 16:05:00,
2013-01-10 10:10:00,62.2,61.6,30.14,East,80,0.0,0.0,98,0.00,,---,0.76,35.00,VWS V14.00,2013-01-10 16:10:00,
2013-01-10 10:15:00,62.3,61.7,30.14,ESE,119,0.0,1.0,98,0.00,,---,0.76,23.00,VWS V14.00,2013-01-10 16:15:00,
2013-01-10 10:20:00,62.4,61.8,30.14,ESE,121,0.0,1.0,98,0.00,,---,0.76,21.00,VWS V14.00,2013-01-10 16:20:00,
2013-01-10 10:25:00,62.6,62.0,30.14,SE,141,4.0,5.0,98,0.00,,---,0.77,19.00,VWS V14.00,2013-01-10 16:25:00,
2013-01-10 10:30:00,62.8,62.2,30.14,East,98,3.0,5.0,98,0.00,,---,0.77,33.00,VWS V14.00,2013-01-10 16:30:00,
2013-01-10 10:35:00,63.0,62.4,30.13,East,92,0.0,12.0,98,0.00,,---,0.77,21.00,VWS V14.00,2013-01-10 16:35:00,
2013-01-10 10:40:00,63.0,62.4,30.13,East,98,0.0,12.0,98,0.00,,---,0.78,12.00,VWS V14.00,2013-01-10 16:40:00,
2013-01-10 10:45:00,63.0,62.4,30.13,ESE,113,0.0,12.0,98,0.17,,---,0.79,16.00,VWS V14.00,2013-01-10 16:45:00,
2013-01-10 10:50:00,63.0,62.4,30.13,East,99,5.0,12.0,98,0.58,,---,0.82,33.00,VWS V14.00,2013-01-10 16:50:00,
2013-01-10 10:55:00,63.0,62.4,30.12,East,96,4.0,12.0,98,0.10,,---,0.83,32.00,VWS V14.00,2013-01-10 16:55:00,
2013-01-10 11:00:00,63.0,62.4,30.12,East,86,0.0,2.0,98,0.10,,---,0.83,19.00,VWS V14.00,2013-01-10 17:00:00,
2013-01-10 11:05:00,63.0,62.4,30.12,East,96,0.0,7.0,98,0.06,,---,0.83,16.00,VWS V14.00,2013-01-10 17:05:00,
2013-01-10 11:10:00,63.0,62.4,30.12,East,101,3.0,10.0,98,0.04,,---,0.83,18.00,VWS V14.00,2013-01-10 17:10:00,
2013-01-10 11:15:00,63.0,62.4,30.12,SE,146,0.0,10.0,98,0.14,,---,0.85,28.00,VWS V14.00,2013-01-10 17:15:00,
2013-01-10 11:20:00,63.0,62.4,30.11,East,98,0.0,10.0,98,0.22,,---,0.87,23.00,VWS V14.00,2013-01-10 17:20:00,
2013-01-10 11:25:00,63.0,62.4,30.11,ESE,109,0.0,10.0,98,0.12,,---,0.88,14.00,VWS V14.00,2013-01-10 17:25:00,
2013-01-10 11:30:00,63.0,62.4,30.11,ESE,111,3.0,4.0,98,0.56,,---,0.91,21.00,VWS V14.00,2013-01-10 17:30:00,
2013-01-10 11:35:00,63.1,62.5,30.10,ESE,112,0.0,6.0,98,0.16,,---,0.92,21.00,VWS V14.00,2013-01-10 17:35:00,
2013-01-10 11:40:00,63.1,62.5,30.10,SE,124,0.0,6.0,98,0.10,,---,0.93,26.00,VWS V14.00,2013-01-10 17:40:00,
2013-01-10 11:45:00,63.1,62.5,30.09,East,86,0.0,7.0,98,0.07,,---,0.93,30.00,VWS V14.00,2013-01-10 17:45:00,
2013-01-10 11:50:00,63.1,62.5,30.09,ESE,116,0.0,9.0,98,0.05,,---,0.93,47.00,VWS V14.00,2013-01-10 17:50:00,
2013-01-10 11:55:00,63.2,62.6,30.09,ESE,119,5.0,11.0,98,0.00,,---,0.93,47.00,VWS V14.00,2013-01-10 17:55:00,
2013-01-10 12:00:00,63.2,62.6,30.08,SE,135,0.0,4.0,98,0.00,,---,0.94,37.00,VWS V14.00,2013-01-10 18:00:00,
2013-01-10 12:05:00,63.4,62.8,30.08,East,98,0.0,10.0,98,0.00,,---,0.94,19.00,VWS V14.00,2013-01-10 18:05:00,
2013-01-10 12:10:00,63.4,62.8,30.08,East,96,0.0,10.0,98,0.05,,---,0.96,37.00,VWS V14.00,2013-01-10 18:10:00,
2013-01-10 12:15:00,63.4,62.8,30.08,ESE,112,0.0,10.0,98,0.13,,---,0.96,23.00,VWS V14.00,2013-01-10 18:15:00,
2013-01-10 12:20:00,63.5,62.9,30.07,ESE,112,3.0,10.0,98,0.06,,---,0.96,63.00,VWS V14.00,2013-01-10 18:20:00,
2013-01-10 12:25:00,63.6,63.0,30.07,SE,141,0.0,11.0,98,0.05,,---,0.97,23.00,VWS V14.00,2013-01-10 18:25:00,
2013-01-10 12:30:00,63.7,63.1,30.06,SSE,156,0.0,6.0,98,0.24,,---,0.99,40.00,VWS V14.00,2013-01-10 18:30:00,
2013-01-10 12:35:00,63.7,63.1,30.05,SE,144,0.0,6.0,98,0.15,,---,1.00,54.00,VWS V14.00,2013-01-10 18:35:00,
2013-01-10 12:40:00,63.8,63.2,30.04,ESE,120,0.0,6.0,98,0.10,,---,1.01,47.00,VWS V14.00,2013-01-10 18:40:00,
2013-01-10 12:45:00,63.9,63.3,30.03,ENE,68,0.0,6.0,98,0.10,,---,1.02,69.00,VWS V14.00,2013-01-10 18:45:00,
2013-01-10 12:50:00,64.0,63.4,30.03,SE,144,0.0,10.0,98,0.10,,---,1.02,37.00,VWS V14.00,2013-01-10 18:50:00,
2013-01-10 12:55:00,64.0,63.4,30.04,ESE,107,0.0,10.0,98,0.06,,---,1.02,28.00,VWS V14.00,2013-01-10 18:55:00,
2013-01-10 13:00:00,64.1,63.5,30.02,ENE,78,0.0,5.0,98,0.04,,---,1.02,53.00,VWS V14.00,2013-01-10 19:00:00,
2013-01-10 13:05:00,64.2,63.6,30.01,ESE,105,6.0,6.0,98,0.00,,---,1.02,86.00,VWS V14.00,2013-01-10 19:05:00,
2013-01-10 13:10:00,64.3,63.7,29.99,SE,130,7.0,14.0,98,0.00,,---,1.03,178.00,VWS V14.00,2013-01-10 19:10:00,
2013-01-10 13:15:00,64.6,64.0,29.99,East,92,4.0,14.0,98,0.00,,---,1.03,188.00,VWS V14.00,2013-01-10 19:15:00,
2013-01-10 13:20:00,64.9,64.3,29.99,SSE,157,2.0,16.0,98,0.00,,---,1.03,165.00,VWS V14.00,2013-01-10 19:20:00,
2013-01-10 13:25:00,65.1,64.5,29.99,SE,140,8.0,16.0,98,0.00,,---,1.03,100.00,VWS V14.00,2013-01-10 19:25:00,
2013-01-10 13:30:00,65.1,64.5,29.99,East,100,3.0,14.0,98,0.00,,---,1.03,72.00,VWS V14.00,2013-01-10 19:30:00,
2013-01-10 13:35:00,65.2,64.6,29.99,SE,124,5.0,15.0,98,0.00,,---,1.03,69.00,VWS V14.00,2013-01-10 19:35:00,
2013-01-10 13:40:00,65.2,64.6,29.98,ESE,121,4.0,15.0,98,0.00,,---,1.03,67.00,VWS V14.00,2013-01-10 19:40:00,
2013-01-10 13:45:00,65.3,64.7,29.98,SSE,147,7.0,15.0,98,0.00,,---,1.03,84.00,VWS V14.00,2013-01-10 19:45:00,
2013-01-10 13:50:00,65.3,64.7,29.97,SE,142,0.0,15.0,98,0.00,,---,1.03,74.00,VWS V14.00,2013-01-10 19:50:00,
2013-01-10 13:55:00,65.4,64.8,29.98,SE,142,4.0,15.0,98,0.00,,---,1.03,54.00,VWS V14.00,2013-01-10 19:55:00,
2013-01-10 14:00:00,65.4,64.5,29.98,SSE,155,4.0,15.0,97,0.00,,---,1.03,63.00,VWS V14.00,2013-01-10 20:00:00,
2013-01-10 14:05:00,65.4,64.5,29.98,SSE,150,8.0,16.0,97,0.00,,---,1.03,74.00,VWS V14.00,2013-01-10 20:05:00,
2013-01-10 14:10:00,65.3,64.4,29.98,SSE,158,6.0,17.0,97,0.00,,---,1.03,67.00,VWS V14.00,2013-01-10 20:10:00,
2013-01-10 14:15:00,65.3,64.4,29.97,SSE,147,2.0,17.0,97,0.00,,---,1.03,67.00,VWS V14.00,2013-01-10 20:15:00,
2013-01-10 14:20:00,65.3,64.4,29.97,SSE,153,7.0,17.0,97,0.00,,---,1.03,51.00,VWS V14.00,2013-01-10 20:20:00,
2013-01-10 14:25:00,65.3,64.4,29.98,SSE,161,4.0,17.0,97,0.00,,---,1.03,26.00,VWS V14.00,2013-01-10 20:25:00,
2013-01-10 14:30:00,65.2,64.3,29.97,SSE,157,8.0,11.0,97,0.00,,---,1.03,39.00,VWS V14.00,2013-01-10 20:30:00,
2013-01-10 14:35:00,65.1,64.2,29.97,SE,146,10.0,13.0,97,0.00,,---,1.03,46.00,VWS V14.00,2013-01-10 20:35:00,
2013-01-10 14:40:00,65.0,63.8,29.96,SE,143,12.0,17.0,96,0.00,,---,1.03,60.00,VWS V14.00,2013-01-10 20:40:00,
2013-01-10 14:45:00,64.9,63.7,29.95,SSE,150,11.0,20.0,96,0.00,,---,1.03,54.00,VWS V14.00,2013-01-10 20:45:00,
2013-01-10 14:50:00,64.8,63.3,29.94,ESE,121,14.0,21.0,95,0.00,,---,1.03,35.00,VWS V14.00,2013-01-10 20:50:00,
2013-01-10 14:55:00,64.9,63.4,29.93,SSE,153,12.0,23.0,95,0.00,,---,1.03,26.00,VWS V14.00,2013-01-10 20:55:00,
2013-01-10 15:00:00,64.9,63.4,29.93,SSE,149,13.0,22.0,95,0.00,,---,1.03,23.00,VWS V14.00,2013-01-10 21:00:00,
2013-01-10 15:05:00,64.9,63.4,29.93,SSE,166,10.0,28.0,95,0.00,,---,1.04,21.00,VWS V14.00,2013-01-10 21:05:00,
2013-01-10 15:10:00,64.9,63.4,29.91,SE,134,14.0,28.0,95,0.00,,---,1.04,26.00,VWS V14.00,2013-01-10 21:10:00,
2013-01-10 15:15:00,64.9,63.4,29.89,East,92,11.0,28.0,95,0.00,,---,1.04,42.00,VWS V14.00,2013-01-10 21:15:00,
2013-01-10 15:20:00,64.9,63.4,29.90,East,101,2.0,28.0,95,0.00,,---,1.04,49.00,VWS V14.00,2013-01-10 21:20:00,
2013-01-10 15:25:00,64.9,63.4,29.89,South,178,3.0,28.0,95,0.00,,---,1.04,67.00,VWS V14.00,2013-01-10 21:25:00,
2013-01-10 15:30:00,65.0,63.5,29.88,SE,125,7.0,12.0,95,0.00,,---,1.04,76.00,VWS V14.00,2013-01-10 21:30:00,
2013-01-10 15:35:00,65.1,63.3,29.89,ESE,109,6.0,18.0,94,0.00,,---,1.04,65.00,VWS V14.00,2013-01-10 21:35:00,
2013-01-10 15:40:00,65.2,63.4,29.89,SSE,155,9.0,18.0,94,0.00,,---,1.04,62.00,VWS V14.00,2013-01-10 21:40:00,
2013-01-10 15:45:00,65.2,63.4,29.90,SSE,154,4.0,18.0,94,0.00,,---,1.04,54.00,VWS V14.00,2013-01-10 21:45:00,
2013-01-10 15:50:00,65.3,63.5,29.89,SE,136,0.0,18.0,94,0.00,,---,1.04,44.00,VWS V14.00,2013-01-10 21:50:00,
2013-01-10 15:55:00,65.4,63.3,29.89,SE,136,0.0,18.0,93,0.00,,---,1.04,39.00,VWS V14.00,2013-01-10 21:55:00,
2013-01-10 16:00:00,65.5,63.4,29.89,SE,128,0.0,11.0,93,0.00,,---,1.04,44.00,VWS V14.00,2013-01-10 22:00:00,
2013-01-10 16:06:00,65.5,63.4,29.90,SE,142,0.0,11.0,93,0.00,,---,1.04,44.00,VWS V14.00,2013-01-10 22:06:00,
2013-01-10 16:11:00,65.5,63.4,29.90,SSE,156,5.0,12.0,93,0.00,,---,1.04,51.00,VWS V14.00,2013-01-10 22:11:00,
2013-01-10 16:16:00,65.5,63.4,29.90,South,180,6.0,13.0,93,0.00,,---,1.04,46.00,VWS V14.00,2013-01-10 22:16:00,
2013-01-10 16:21:00,65.5,63.4,29.91,SE,125,0.0,16.0,93,0.00,,---,1.04,40.00,VWS V14.00,2013-01-10 22:21:00,
2013-01-10 16:26:00,65.5,63.4,29.90,SSE,159,11.0,16.0,93,0.00,,---,1.04,37.00,VWS V14.00,2013-01-10 22:26:00,
2013-01-10 16:30:00,65.4,63.3,29.90,SSE,155,2.0,16.0,93,0.00,,---,1.04,32.00,VWS V14.00,2013-01-10 22:30:00,
2013-01-10 16:31:00,65.4,63.3,29.90,ESE,123,6.0,14.0,93,0.00,,---,1.04,30.00,VWS V14.00,2013-01-10 22:31:00,
2013-01-10 16:36:00,65.4,63.3,29.89,SE,143,0.0,14.0,93,0.00,,---,1.04,25.00,VWS V14.00,2013-01-10 22:36:00,
2013-01-10 16:41:00,65.4,63.3,29.89,ESE,115,0.0,14.0,93,0.00,,---,1.04,9.00,VWS V14.00,2013-01-10 22:41:00,
2013-01-10 16:46:00,65.4,63.3,29.88,SE,135,1.0,14.0,93,0.00,,---,1.04,11.00,VWS V14.00,2013-01-10 22:46:00,
2013-01-10 16:51:00,65.4,63.6,29.88,SE,134,0.0,14.0,94,0.00,,---,1.04,5.00,VWS V14.00,2013-01-10 22:51:00,
2013-01-10 16:56:00,65.5,63.7,29.88,South,172,6.0,14.0,94,0.00,,---,1.04,0.00,VWS V14.00,2013-01-10 22:56:00,
2013-01-10 17:00:00,65.6,63.8,29.88,SSE,154,0.0,14.0,94,0.00,,---,1.04,0.00,VWS V14.00,2013-01-10 23:00:00,
2013-01-10 17:01:00,65.6,63.8,29.88,SE,138,0.0,4.0,94,0.00,,---,1.04,0.00,VWS V14.00,2013-01-10 23:01:00,
2013-01-10 17:06:00,65.8,64.0,29.88,ESE,118,0.0,15.0,94,0.00,,---,1.04,0.00,VWS V14.00,2013-01-10 23:06:00,
2013-01-10 17:11:00,65.8,64.0,29.88,SSE,156,7.0,15.0,94,0.00,,---,1.04,0.00,VWS V14.00,2013-01-10 23:11:00,
2013-01-10 17:16:00,66.0,64.2,29.87,SE,130,0.0,18.0,94,0.00,,---,1.04,5.00,VWS V14.00,2013-01-10 23:16:00,
2013-01-10 17:21:00,66.1,64.3,29.87,SE,137,11.0,18.0,94,0.00,,---,1.04,0.00,VWS V14.00,2013-01-10 23:21:00,
2013-01-10 17:26:00,66.3,64.2,29.87,SE,140,10.0,18.0,93,0.00,,---,1.04,0.00,VWS V14.00,2013-01-10 23:26:00,
2013-01-10 17:30:00,66.3,64.2,29.87,SSE,157,9.0,18.0,93,0.00,,---,1.04,0.00,VWS V14.00,2013-01-10 23:30:00,
2013-01-10 17:31:00,66.5,64.4,29.87,SE,131,8.0,15.0,93,0.00,,---,1.04,0.00,VWS V14.00,2013-01-10 23:31:00,
2013-01-10 17:36:00,66.6,64.5,29.87,SE,135,10.0,20.0,93,0.00,,---,1.04,0.00,VWS V14.00,2013-01-10 23:36:00,
2013-01-10 17:41:00,66.7,64.6,29.87,South,169,5.0,20.0,93,0.00,,---,1.04,0.00,VWS V14.00,2013-01-10 23:41:00,
2013-01-10 17:46:00,66.8,64.4,29.87,SSE,155,11.0,20.0,92,0.00,,---,1.04,0.00,VWS V14.00,2013-01-10 23:46:00,
2013-01-10 17:51:00,67.0,64.6,29.88,SSE,153,3.0,20.0,92,0.00,,---,1.04,0.00,VWS V14.00,2013-01-10 23:51:00,
2013-01-10 17:56:00,67.0,64.6,29.88,SE,141,0.0,20.0,92,0.00,,---,1.04,0.00,VWS V14.00,2013-01-10 23:56:00,
2013-01-10 18:00:00,67.0,64.6,29.88,SSE,168,18.0,20.0,92,0.00,,---,1.04,0.00,VWS V14.00,2013-01-11 00:00:00,
2013-01-10 18:01:00,67.1,64.7,29.88,SSE,153,8.0,18.0,92,0.00,,---,1.04,0.00,VWS V14.00,2013-01-11 00:01:00,
2013-01-10 18:06:00,67.2,64.8,29.88,SSE,157,7.0,18.0,92,0.00,,---,1.04,0.00,VWS V14.00,2013-01-11 00:06:00,
2013-01-10 18:11:00,67.4,64.7,29.89,SE,129,11.0,18.0,91,0.00,,---,1.04,0.00,VWS V14.00,2013-01-11 00:11:00,
2013-01-10 18:16:00,67.5,64.8,29.89,South,184,5.0,18.0,91,0.00,,---,1.04,0.00,VWS V14.00,2013-01-11 00:16:00,
2013-01-10 18:21:00,67.6,64.9,29.89,SSE,163,16.0,18.0,91,0.00,,---,1.04,0.00,VWS V14.00,2013-01-11 00:21:00,
2013-01-10 18:26:00,67.6,64.9,29.89,SE,130,1.0,18.0,91,0.00,,---,1.04,0.00,VWS V14.00,2013-01-11 00:26:00,
2013-01-10 18:30:00,67.6,64.9,29.89,SSE,150,6.0,18.0,91,0.00,,---,1.04,0.00,VWS V14.00,2013-01-11 00:30:00,
2013-01-10 18:31:00,67.6,64.6,29.89,SSE,168,4.0,14.0,90,0.00,,---,1.04,0.00,VWS V14.00,2013-01-11 00:31:00,
2013-01-10 18:36:00,67.6,64.9,29.90,South,184,11.0,15.0,91,0.00,,---,1.04,0.00,VWS V14.00,2013-01-11 00:36:00,
2013-01-10 18:41:00,67.6,64.6,29.90,SSE,161,6.0,16.0,90,0.00,,---,1.04,0.00,VWS V14.00,2013-01-11 00:41:00,
2013-01-10 18:46:00,67.6,64.6,29.90,SSW,200,3.0,16.0,90,0.00,,---,1.04,0.00,VWS V14.00,2013-01-11 00:46:00,
2013-01-10 18:51:00,67.6,64.6,29.90,ESE,121,0.0,16.0,90,0.00,,---,1.04,0.00,VWS V14.00,2013-01-11 00:51:00,
2013-01-10 18:56:00,67.6,64.6,29.90,SSE,159,2.0,18.0,90,0.00,,---,1.04,0.00,VWS V14.00,2013-01-11 00:56:00,
2013-01-10 19:00:00,67.6,64.6,29.90,SSW,205,7.0,18.0,90,0.00,,---,1.04,0.00,VWS V14.00,2013-01-11 01:00:00,
2013-01-10 19:01:00,67.5,64.5,29.90,SSW,198,9.0,17.0,90,0.00,,---,1.04,0.00,VWS V14.00,2013-01-11 01:01:00,
2013-01-10 19:06:00,67.5,64.5,29.90,SW,227,3.0,17.0,90,0.00,,---,1.04,0.00,VWS V14.00,2013-01-11 01:06:00,
2013-01-10 19:11:00,67.4,64.4,29.91,SSW,201,3.0,19.0,90,0.00,,---,1.04,0.00,VWS V14.00,2013-01-11 01:11:00,
2013-01-10 19:16:00,67.4,64.4,29.91,South,175,4.0,19.0,90,0.00,,---,1.04,0.00,VWS V14.00,2013-01-11 01:16:00,
2013-01-10 19:21:00,67.3,64.0,29.91,South,175,5.0,19.0,89,0.00,,---,1.04,0.00,VWS V14.00,2013-01-11 01:21:00,
2013-01-10 19:26:00,67.4,64.1,29.91,SE,144,5.0,19.0,89,0.00,,---,1.04,0.00,VWS V14.00,2013-01-11 01:26:00,
2013-01-10 19:30:00,67.4,64.1,29.91,South,182,11.0,19.0,89,0.00,,---,1.04,0.00,VWS V14.00,2013-01-11 01:30:00,
2013-01-10 19:31:00,67.4,63.7,29.92,SE,127,9.0,20.0,88,0.00,,---,1.04,0.00,VWS V14.00,2013-01-11 01:31:00,
2013-01-10 19:36:00,67.4,63.7,29.92,South,188,5.0,20.0,88,0.00,,---,1.04,0.00,VWS V14.00,2013-01-11 01:36:00,
2013-01-10 19:41:00,67.1,63.4,29.93,SSW,206,5.0,20.0,88,0.00,,---,1.04,0.00,VWS V14.00,2013-01-11 01:41:00,
2013-01-10 19:46:00,67.0,63.3,29.93,South,178,4.0,20.0,88,0.00,,---,1.04,0.00,VWS V14.00,2013-01-11 01:46:00,
2013-01-10 19:51:00,67.0,63.3,29.94,South,188,2.0,22.0,88,0.00,,---,1.04,0.00,VWS V14.00,2013-01-11 01:51:00,
2013-01-10 19:56:00,66.8,63.1,29.94,SW,225,9.0,22.0,88,0.00,,---,1.04,0.00,VWS V14.00,2013-01-11 01:56:00,
2013-01-10 20:00:00,66.8,63.1,29.94,South,178,9.0,22.0,88,0.00,,---,1.04,0.00,VWS V14.00,2013-01-11 02:00:00,
2013-01-10 20:01:00,66.7,63.4,29.95,SW,215,1.0,12.0,89,0.00,,---,1.04,0.00,VWS V14.00,2013-01-11 02:01:00,
2013-01-10 20:06:00,66.4,63.1,29.95,SSW,212,0.0,13.0,89,0.00,,---,1.04,0.00,VWS V14.00,2013-01-11 02:06:00,
2013-01-10 20:11:00,66.2,63.2,29.95,SSW,192,0.0,13.0,90,0.00,,---,1.04,0.00,VWS V14.00,2013-01-11 02:11:00,
2013-01-10 20:16:00,66.0,63.3,29.94,South,186,0.0,13.0,91,0.00,,---,1.04,0.00,VWS V14.00,2013-01-11 02:16:00,
2013-01-10 20:21:00,65.8,63.1,29.95,SSW,207,0.0,13.0,91,0.00,,---,1.04,0.00,VWS V14.00,2013-01-11 02:21:00,
2013-01-10 20:26:00,65.7,63.3,29.94,SSW,209,0.0,13.0,92,0.00,,---,1.04,0.00,VWS V14.00,2013-01-11 02:26:00,
2013-01-10 20:30:00,65.6,63.2,29.94,SW,236,5.0,13.0,92,0.00,,---,1.04,0.00,VWS V14.00,2013-01-11 02:30:00,
2013-01-10 20:31:00,65.5,63.1,29.95,SSW,213,0.0,7.0,92,0.00,,---,1.04,0.00,VWS V14.00,2013-01-11 02:31:00,
2013-01-10 20:36:00,65.4,63.3,29.95,WSW,254,5.0,15.0,93,0.00,,---,1.04,0.00,VWS V14.00,2013-01-11 02:36:00,
2013-01-10 20:41:00,65.3,63.2,29.94,SSW,209,4.0,15.0,93,0.00,,---,1.04,0.00,VWS V14.00,2013-01-11 02:41:00,
2013-01-10 20:46:00,65.1,63.0,29.94,SSW,198,0.0,15.0,93,0.00,,---,1.04,0.00,VWS V14.00,2013-01-11 02:46:00,
2013-01-10 20:51:00,65.0,63.2,29.94,SSW,209,4.0,15.0,94,0.00,,---,1.04,0.00,VWS V14.00,2013-01-11 02:51:00,
2013-01-10 20:56:00,65.0,63.2,29.94,SW,217,0.0,15.0,94,0.00,,---,1.05,0.00,VWS V14.00,2013-01-11 02:56:00,
2013-01-10 21:00:00,65.0,63.2,29.94,SSW,211,0.0,15.0,94,0.00,,---,1.05,0.00,VWS V14.00,2013-01-11 03:00:00,
2013-01-10 21:01:00,64.9,63.1,29.94,SSW,209,0.0,4.0,94,0.00,,---,1.05,0.00,VWS V14.00,2013-01-11 03:01:00,
2013-01-10 21:06:00,64.9,63.1,29.94,SSW,199,0.0,4.0,94,0.00,,---,1.05,0.00,VWS V14.00,2013-01-11 03:06:00,
2013-01-10 21:11:00,64.9,63.1,29.94,SW,227,0.0,12.0,94,0.00,,---,1.05,0.00,VWS V14.00,2013-01-11 03:11:00,
2013-01-10 21:16:00,64.8,63.0,29.94,SSW,212,0.0,12.0,94,0.00,,---,1.05,0.00,VWS V14.00,2013-01-11 03:16:00,
2013-01-10 21:21:00,64.8,63.0,29.94,SW,221,0.0,12.0,94,0.00,,---,1.05,0.00,VWS V14.00,2013-01-11 03:21:00,
2013-01-10 21:26:00,64.7,62.9,29.94,WSW,246,0.0,12.0,94,0.00,,---,1.05,0.00,VWS V14.00,2013-01-11 03:26:00,
2013-01-10 21:30:00,64.7,62.9,29.93,WSW,244,0.0,12.0,94,0.00,,---,1.05,0.00,VWS V14.00,2013-01-11 03:30:00,
2013-01-10 21:31:00,64.7,62.9,29.93,SW,235,0.0,5.0,94,0.00,,---,1.05,0.00,VWS V14.00,2013-01-11 03:31:00,
2013-01-10 21:36:00,64.6,62.8,29.93,WSW,237,0.0,5.0,94,0.00,,---,1.05,0.00,VWS V14.00,2013-01-11 03:36:00,
2013-01-10 21:41:00,64.5,62.7,29.94,WSW,240,0.0,5.0,94,0.00,,---,1.05,0.00,VWS V14.00,2013-01-11 03:41:00,
2013-01-10 21:46:00,64.5,62.7,29.94,SW,232,0.0,6.0,94,0.00,,---,1.05,0.00,VWS V14.00,2013-01-11 03:46:00,
2013-01-10 21:51:00,64.5,62.7,29.94,SW,225,0.0,11.0,94,0.00,,---,1.05,0.00,VWS V14.00,2013-01-11 03:51:00,
2013-01-10 21:56:00,64.4,62.6,29.94,SW,231,0.0,11.0,94,0.00,,---,1.05,0.00,VWS V14.00,2013-01-11 03:56:00,
2013-01-10 22:00:00,64.4,62.6,29.94,South,182,0.0,11.0,94,0.00,,---,1.05,0.00,VWS V14.00,2013-01-11 04:00:00,
2013-01-10 22:01:00,64.3,62.5,29.94,SW,227,0.0,6.0,94,0.00,,---,1.05,0.00,VWS V14.00,2013-01-11 04:01:00,
2013-01-10 22:06:00,64.3,62.8,29.94,SW,230,0.0,8.0,95,0.00,,---,1.05,0.00,VWS V14.00,2013-01-11 04:06:00,
2013-01-10 22:11:00,64.2,62.7,29.94,SW,225,0.0,8.0,95,0.00,,---,1.05,0.00,VWS V14.00,2013-01-11 04:11:00,
2013-01-10 22:16:00,64.2,62.7,29.93,SSE,167,9.0,13.0,95,0.00,,---,1.05,0.00,VWS V14.00,2013-01-11 04:16:00,
2013-01-10 22:21:00,64.1,62.3,29.93,South,176,4.0,16.0,94,0.00,,---,1.05,0.00,VWS V14.00,2013-01-11 04:21:00,
2013-01-10 22:26:00,64.1,62.3,29.93,SSW,199,5.0,16.0,94,0.00,,---,1.05,0.00,VWS V14.00,2013-01-11 04:26:00,
2013-01-10 22:30:00,64.1,62.3,29.93,SSW,194,3.0,16.0,94,0.00,,---,1.05,0.00,VWS V14.00,2013-01-11 04:30:00,
2013-01-10 22:31:00,64.1,62.3,29.93,SSW,213,0.0,10.0,94,0.00,,---,1.05,0.00,VWS V14.00,2013-01-11 04:31:00,
2013-01-10 22:36:00,64.1,62.3,29.93,SSW,204,0.0,10.0,94,0.00,,---,1.05,0.00,VWS V14.00,2013-01-11 04:36:00,
2013-01-10 22:41:00,64.0,62.2,29.93,SSW,194,0.0,12.0,94,0.00,,---,1.05,0.00,VWS V14.00,2013-01-11 04:41:00,
2013-01-10 22:46:00,64.0,62.2,29.93,SSW,195,6.0,12.0,94,0.00,,---,1.06,0.00,VWS V14.00,2013-01-11 04:46:00,
2013-01-10 22:51:00,63.9,62.4,29.92,SSW,202,0.0,12.0,95,0.00,,---,1.06,0.00,VWS V14.00,2013-01-11 04:51:00,
2013-01-10 22:56:00,63.8,62.3,29.92,SSW,205,0.0,12.0,95,0.00,,---,1.06,0.00,VWS V14.00,2013-01-11 04:56:00,
2013-01-10 23:00:00,63.8,62.3,29.92,South,173,6.0,14.0,95,0.00,,---,1.06,0.00,VWS V14.00,2013-01-11 05:00:00,
2013-01-10 23:01:00,63.8,62.3,29.92,South,178,3.0,14.0,95,0.00,,---,1.06,0.00,VWS V14.00,2013-01-11 05:01:00,
2013-01-10 23:03:00,63.7,62.2,29.92,SSW,197,4.0,14.0,95,0.00,,---,1.06,0.00,VWS V14.00,2013-01-11 05:03:00,
2013-01-10 23:08:00,63.6,62.2,29.92,SSW,203,0.0,14.0,95,0.00,,---,1.07,0.00,VWS V14.00,2013-01-11 05:08:00,
2013-01-10 23:13:00,63.6,62.2,29.92,South,184,0.0,14.0,95,0.24,,---,1.08,0.00,VWS V14.00,2013-01-11 05:13:00,
2013-01-10 23:18:00,63.5,62.0,29.92,South,177,0.0,14.0,95,0.08,,---,1.08,0.00,VWS V14.00,2013-01-11 05:18:00,
2013-01-10 23:23:00,63.4,62.0,29.92,South,185,0.0,14.0,95,0.05,,---,1.08,0.00,VWS V14.00,2013-01-11 05:23:00,
2013-01-10 23:28:00,63.4,62.2,29.92,SSW,200,0.0,0.0,96,0.00,,---,1.08,0.00,VWS V14.00,2013-01-11 05:28:00,
2013-01-10 23:30:00,63.4,62.2,29.92,SSW,212,0.0,14.0,96,0.00,,---,1.08,0.00,VWS V14.00,2013-01-11 05:30:00,
2013-01-10 23:33:00,63.3,62.1,29.92,SSW,206,0.0,10.0,96,0.00,,---,1.09,0.00,VWS V14.00,2013-01-11 05:33:00,
2013-01-10 23:38:00,63.3,62.1,29.92,SW,223,0.0,10.0,96,0.00,,---,1.09,0.00,VWS V14.00,2013-01-11 05:38:00,
2013-01-10 23:43:00,63.2,62.0,29.93,WSW,248,0.0,10.0,96,0.00,,---,1.09,0.00,VWS V14.00,2013-01-11 05:43:00,
2013-01-10 23:48:00,63.2,62.0,29.94,SW,231,11.0,14.0,96,1.48,,---,1.15,0.00,VWS V14.00,2013-01-11 05:48:00,
2013-01-10 23:53:00,62.5,61.0,29.93,SW,227,1.0,17.0,95,0.17,,---,1.16,0.00,VWS V14.00,2013-01-11 05:53:00,
2013-01-10 23:58:00,62.3,60.8,29.93,SSW,210,1.0,11.0,95,0.07,,---,0.00,0.00,VWS V14.00,2013-01-11 05:58:00,